Powrót do katalogu

STARLINK-31600

AktywnyŁącznośćVLEO
NORAD 59341·PAYLOAD·🇺🇸 United States

Wystrzelony Mar 25, 2024 z Cape Canaveral Space Force Station

Loading…

Następne Przeloty (najbliższe 24 godziny)

TLE

ŚwieżeSource: CelesTrak SupGP

Epoka: Sep 14, 2026, 21:31 UTC

1 59341C 24057X   26257.89701389  .00014468  00000+0  52357-3 0  2571
2 59341  42.9998 206.2375 0001344 263.9989 208.2789 15.27600807    11

Śledź STARLINK-31600 w czasie rzeczywistym z AllMySat

Download on the App Store